Lid_Strength_Index
1 5 7 8 11 13 14 14 11 10 10 7 6 7 8 7 9 12 2 1 1 1 0 -0 -1 -1 -1 -1 -1 -1 -1 -1 -1 -1 -1 -1 -1 -1 -1 -1 -1 -1 -1 -1 -1 -1 -1 -1 -1
2 6 8 11 14 15 15 14 10 9 7 6 6 6 7 8 4 4 3 1 1 2 0 0 -1 -1 -1 -1 -1 -1 -1 -1 -1 -1 -1 -1 -1 -1 -1 -1 -1 -1 -1 -1 -1 -1 -1 -1 -1
7 6 10 13 15 15 14 14 14 9 6 6 7 6 6 7 4 4 2 1 2 3 2 -0 -1 -1 -1 -1 -1 -1 -1 -1 -1 -1 -1 -1 -1 -1 -1 -1 -1 -1 -1 -1 -1 -1 -1 -1 -1
8 8 8 12 13 13 13 15 14 12 11 10 10 10 8 6 4 3 2 -1 0 2 1 -1 -1 -1 -1 -1 -1 -1 -1 -1 -1 -1 -1 -1 -1 -1 -1 -1 -1 -1 -1 -1 -1 -1 -1 -1 -1
10 11 13 13 12 10 12 12 13 12 10 9 8 9 9 4 2 3 3 1 1 2 0 -0 -1 -1 -1 -1 -1 -1 -1 -1 -1 -1 -1 -1 -1 -1 -1 -1 -1 -1 -1 -1 -1 -1 -1 -1 -1
12 13 16 17 14 11 12 12 12 10 10 10 9 9 10 3 4 4 3 3 1 0 -0 0 -1 -1 -1 -1 -1 -1 -1 -1 -1 -1 -1 -1 -1 -1 -1 -1 -1 -1 -1 -1 -1 -1 -1 -1 -1
13 15 16 15 15 13 12 11 13 12 11 10 9 10 9 10 3 3 5 4 1 1 0 -0 -0 -1 -1 -1 -1 -1 -1 -1 -1 -1 -1 -1 -1 -1 -1 -1 -1 -1 -1 -1 -1 -1 -1 -1 -1
11 13 17 17 15 14 11 10 10 10 11 8 7 9 11 9 7 4 1 2 1 0 0 0 -0 -0 -0 -0 -1 -1 -1 -1 -1 -1 -1 -1 -1 -1 -1 -1 -1 -1 -1 -1 -1 -1 -1 -1 -1
11 14 17 16 14 13 11 11 9 9 9 8 8 8 6 6 7 4 3 5 5 4 5 4 3 4 3 -0 -0 -1 -1 -1 -1 -1 -1 -0 0 -0 -0 -1 -1 -1 -1 -1 -1 -1 -1 -1 -1
12 15 14 13 12 14 13 12 11 9 10 9 8 7 4 3 6 6 7 6 5 5 5 4 2 2 0 -0 -1 -0 -0 -0 -0 0 0 0 0 -0 -0 -1 -1 -1 -1 -1 -1 -1 -1 -1 -0
14 14 12 12 11 11 12 12 11 10 11 9 8 8 4 3 3 4 5 7 6 4 1 1 1 0 0 0 0 -0 -0 -0 -0 -0 0 0 -0 -0 -0 -0 -0 -0 -1 -0 -0 -0 -0 0 0
11 12 11 11 11 12 12 11 11 10 9 7 7 6 4 4 4 4 3 3 3 2 2 1 1 1 0 1 0 0 0 0 0 0 -0 0 -0 0 0 1 1 0 -0 0 0 0 0 0 -0
12 12 11 10 11 12 11 11 10 10 7 7 7 5 4 4 4 3 3 2 2 2 2 1 1 1 0 0 0 0 0 0 0 0 1 -0 0 0 0 0 1 1 1 0 0 0 0 0 0
10 11 11 11 9 11 10 10 9 9 7 7 8 6 4 4 4 4 3 3 3 2 2 1 1 1 0 1 1 0 0 0 0 1 1 1 1 0 0 1 1 1 1 1 1 1 1 1 1
10 12 11 11 11 10 9 11 10 8 8 8 8 7 5 4 3 4 3 3 2 2 1 1 1 0 0 1 0 0 0 0 0 1 1 1 2 1 0 1 1 1 1 2 1 1 2 2 2
11 12 14 11 10 10 10 13 10 7 9 9 7 5 5 5 4 3 3 2 3 2 2 1 0 1 0 0 0 0 0 0 0 0 0 1 1 2 2 0 1 0 0 0 2 2 3 2 2
13 14 14 12 10 11 11 13 9 8 9 9 8 6 5 5 5 4 3 3 3 2 2 1 1 1 1 1 0 0 0 0 0 0 0 0 -0 0 2 2 0 0 1 1 1 1 2 3 2
15 14 13 13 10 10 12 12 9 8 9 10 9 6 6 6 5 4 3 3 2 2 2 2 1 1 1 1 0 0 1 1 0 0 0 -0 1 1 2 1 1 0 1 3 2 2 2 2 3
11 12 13 12 10 12 12 12 9 8 8 8 7 7 7 6 5 4 3 3 2 2 2 2 2 2 1 1 2 2 2 2 1 0 0 0 -0 0 2 1 1 1 2 4 3 3 3 3 3
11 13 13 12 10 11 11 12 9 8 9 8 8 8 7 6 6 5 4 4 3 2 2 2 2 2 2 2 2 2 2 2 1 1 0 -0 -0 0 1 2 1 2 5 5 5 5 5 2 1
13 13 13 12 11 11 12 13 11 9 8 8 8 7 7 7 7 6 5 5 4 4 3 2 2 2 2 2 1 1 2 2 2 1 1 0 -0 -0 0 2 2 3 4 5 5 5 4 3 2
14 11 11 11 13 16 13 18 13 11 10 9 9 9 8 8 7 7 6 6 5 4 3 3 2 2 1 2 3 3 3 4 2 2 1 0 -0 -0 0 1 2 3 4 4 3 2 3 3 4
11 9 11 12 14 16 14 17 14 12 12 10 9 8 8 8 7 6 6 5 4 3 4 4 4 3 2 3 3 3 4 3 2 2 2 1 1 0 -0 0 1 2 4 4 4 4 4 3 3
9 11 13 14 16 18 16 16 17 14 12 10 8 7 7 7 6 6 5 5 5 4 3 3 3 4 3 3 3 3 3 3 3 3 2 1 1 1 0 0 1 1 1 1 2 1 2 2 2
11 15 18 18 19 19 14 16 16 12 10 8 8 8 7 7 7 6 6 5 5 4 4 2 3 4 3 3 2 3 3 3 3 2 2 2 2 1 1 1 1 2 2 3 3 3 2 3 3
14 15 18 20 20 18 14 17 15 10 9 7 7 8 7 7 6 5 5 6 5 4 3 3 3 3 3 3 4 3 3 3 2 2 2 2 2 2 1 1 2 1 2 3 3 3 3 3 3
13 15 13 16 17 19 17 15 12 10 9 8 8 8 8 8 7 6 6 5 5 4 4 4 4 4 4 4 4 5 5 4 4 2 2 3 2 1 1 1 2 3 2 3 4 4 4 4 5
12 11 16 17 19 20 18 17 16 12 10 9 9 9 8 8 7 7 6 5 4 4 4 4 4 4 4 4 5 5 5 5 5 3 1 3 3 3 3 2 1 1 2 3 3 5 5 6 6
13 14 15 16 17 20 21 18 14 12 11 10 9 8 8 8 7 6 6 5 5 4 5 4 5 5 5 5 5 6 5 5 5 5 3 3 4 4 4 2 2 3 3 3 4 4 6 6 7
12 14 15 19 18 18 19 18 11 10 9 8 8 7 8 8 7 7 6 6 6 5 5 5 4 5 5 5 5 5 5 5 6 6 3 2 3 3 3 2 2 2 3 4 5 5 5 7 8